When you browse on this site, cookies collect data to enhance your experience and personalize the content and advertising you see.
Visit our Privacy Policy to learn more. By continuing to use the site, you agree to this use of cookies and data.
  • en France
  • Liste des pays
  • À 7 jours
  • Température de l'eau
  • Carte satellitaire
  • Carte météo
  • Widgets météo
  • user-avatar
    Se connecter

    Météo par heure à Vljora

    Ce jour, 16 Février, Samedi

    Heure Température Précipitation Vent Pression Humidité
    00:00 +4°C° 0 mm 6 m/s 769 mmHg 70%
    01:00 +3°C° 0 mm 5 m/s 769 mmHg 71%
    02:00 +3°C° 0 mm 5 m/s 770 mmHg 71%
    03:00 +4°C° 0 mm 4 m/s 770 mmHg 71%
    04:00 +4°C° 0 mm 4 m/s 770 mmHg 71%
    05:00 +4°C° 0 mm 4 m/s 770 mmHg 70%
    06:00 +4°C° 0 mm 4 m/s 770 mmHg 70%
    07:00 +4°C° 0 mm 4 m/s 770 mmHg 69%
    08:00 +6°C° 0 mm 4 m/s 770 mmHg 62%
    09:00 +8°C° 0 mm 4 m/s 771 mmHg 55%
    10:00 +10°C° 0 mm 3 m/s 771 mmHg 49%
    11:00 +11°C° 0 mm 4 m/s 771 mmHg 47%
    12:00 +12°C° 0 mm 4 m/s 770 mmHg 45%
    13:00 +13°C° 0 mm 4 m/s 770 mmHg 43%
    14:00 +13°C° 0 mm 5 m/s 770 mmHg 45%
    15:00 +13°C° 0 mm 6 m/s 770 mmHg 48%
    16:00 +13°C° 0 mm 6 m/s 770 mmHg 50%
    17:00 +10°C° 0 mm 7 m/s 770 mmHg 54%
    18:00 +9°C° 0 mm 7 m/s 770 mmHg 58%
    19:00 +8°C° 0 mm 7 m/s 770 mmHg 62%
    20:00 +7°C° 0 mm 6 m/s 770 mmHg 62%
    21:00 +7°C° 0 mm 6 m/s 771 mmHg 62%
    22:00 +7°C° 0 mm 5 m/s 771 mmHg 62%
    23:00 +7°C° 0 mm 5 m/s 771 mmHg 62%

    Demain, 17 Février, Dimanche

    Heure Température Précipitation Vent Pression Humidité
    00:00 +6°C° 0 mm 4 m/s 771 mmHg 61%
    01:00 +6°C° 0 mm 4 m/s 771 mmHg 60%
    02:00 +6°C° 0 mm 4 m/s 770 mmHg 59%
    03:00 +6°C° 0 mm 4 m/s 770 mmHg 58%
    04:00 +6°C° 0 mm 4 m/s 770 mmHg 56%
    05:00 +6°C° 0 mm 4 m/s 770 mmHg 55%
    06:00 +6°C° 0 mm 4 m/s 770 mmHg 54%
    07:00 +6°C° 0 mm 4 m/s 770 mmHg 54%
    08:00 +8°C° 0 mm 4 m/s 770 mmHg 48%
    09:00 +11°C° 0 mm 3 m/s 770 mmHg 43%
    10:00 +12°C° 0 mm 3 m/s 770 mmHg 38%
    11:00 +13°C° 0 mm 4 m/s 770 mmHg 38%
    12:00 +14°C° 0 mm 4 m/s 770 mmHg 38%
    13:00 +14°C° 0 mm 4 m/s 770 mmHg 38%
    14:00 +14°C° 0 mm 4 m/s 769 mmHg 43%
    15:00 +14°C° 0 mm 5 m/s 769 mmHg 48%
    16:00 +13°C° 0 mm 5 m/s 769 mmHg 52%
    17:00 +12°C° 0 mm 5 m/s 769 mmHg 57%
    18:00 +10°C° 0 mm 5 m/s 769 mmHg 62%
    19:00 +8°C° 0 mm 5 m/s 769 mmHg 66%
    20:00 +8°C° 0 mm 4 m/s 769 mmHg 65%
    21:00 +8°C° 0 mm 4 m/s 769 mmHg 64%
    22:00 +8°C° 0 mm 4 m/s 769 mmHg 62%
    23:00 +8°C° 0 mm 4 m/s 769 mmHg 61%

    Après-demain, 18 Février, Lundi

    Heure Température Précipitation Vent Pression Humidité
    00:00 +8°C° 0 mm 4 m/s 769 mmHg 60%
    01:00 +9°C° 0 mm 3 m/s 769 mmHg 59%
    02:00 +9°C° 0 mm 3 m/s 769 mmHg 58%
    03:00 +8°C° 0 mm 3 m/s 768 mmHg 58%
    04:00 +8°C° 0 mm 3 m/s 768 mmHg 57%
    05:00 +8°C° 0 mm 3 m/s 768 mmHg 57%
    06:00 +8°C° 0 mm 3 m/s 768 mmHg 57%
    07:00 +8°C° 0 mm 2 m/s 768 mmHg 57%
    08:00 +10°C° 0 mm 2 m/s 768 mmHg 53%
    09:00 +13°C° 0 mm 2 m/s 768 mmHg 50%
    10:00 +14°C° 0 mm 2 m/s 769 mmHg 46%
    11:00 +15°C° 0 mm 2 m/s 768 mmHg 47%
    12:00 +15°C° 0 mm 2 m/s 768 mmHg 48%
    13:00 +16°C° 0 mm 3 m/s 768 mmHg 49%
    14:00 +16°C° 0 mm 3 m/s 768 mmHg 55%
    15:00 +14°C° 0 mm 3 m/s 767 mmHg 60%
    16:00 +14°C° 0 mm 3 m/s 767 mmHg 65%
    17:00 +13°C° 0 mm 3 m/s 767 mmHg 72%
    18:00 +13°C° 0 mm 2 m/s 767 mmHg 80%
    19:00 +10°C° 0 mm 2 m/s 768 mmHg 88%
    20:00 +10°C° 0 mm 2 m/s 768 mmHg 87%
    21:00 +11°C° 0 mm 1 m/s 768 mmHg 87%
    22:00 +11°C° 0 mm 1 m/s 768 mmHg 87%
    23:00 +11°C° 0 mm 1 m/s 768 mmHg 86%

    19 Février, Mardi

    Heure Température Précipitation Vent Pression Humidité
    00:00 +11°C° 0 mm 1 m/s 768 mmHg 86%
    01:00 +10°C° 0 mm 1 m/s 768 mmHg 86%
    02:00 +10°C° 0 mm 1 m/s 768 mmHg 86%
    03:00 +10°C° 0 mm 1 m/s 768 mmHg 87%
    04:00 +10°C° 0 mm 1 m/s 768 mmHg 87%
    05:00 +10°C° 0 mm 1 m/s 768 mmHg 88%
    06:00 +9°C° 0 mm 0 m/s 768 mmHg 88%
    07:00 +9°C° 0 mm 0 m/s 768 mmHg 88%
    08:00 +10°C° 0 mm 0 m/s 769 mmHg 83%
    09:00 +12°C° 0 mm 0 m/s 769 mmHg 78%
    10:00 +14°C° 0 mm 1 m/s 769 mmHg 72%
    11:00 +15°C° 0 mm 1 m/s 769 mmHg 70%
    12:00 +15°C° 0 mm 1 m/s 768 mmHg 68%
    13:00 +16°C° 0 mm 2 m/s 768 mmHg 66%
    14:00 +15°C° 0 mm 2 m/s 768 mmHg 69%
    15:00 +15°C° 0 mm 1 m/s 768 mmHg 72%
    16:00 +15°C° 0 mm 1 m/s 768 mmHg 76%
    17:00 +14°C° 0 mm 1 m/s 768 mmHg 81%
    18:00 +13°C° 0 mm 1 m/s 768 mmHg 87%
    19:00 +12°C° 0 mm 1 m/s 768 mmHg 93%
    20:00 +11°C° 0 mm 1 m/s 768 mmHg 93%
    21:00 +11°C° 0 mm 1 m/s 769 mmHg 92%
    22:00 +11°C° 0 mm 1 m/s 769 mmHg 92%
    23:00 +10°C° 0 mm 0 m/s 769 mmHg 92%

    20 Février, Mercredi

    Heure Température Précipitation Vent Pression Humidité
    00:00 +10°C° 0 mm 0 m/s 769 mmHg 92%
    01:00 +9°C° 0 mm 0 m/s 769 mmHg 91%
    02:00 +9°C° 0 mm 0 m/s 768 mmHg 92%
    03:00 +9°C° 0 mm 0 m/s 768 mmHg 92%
    04:00 +10°C° 0 mm 1 m/s 768 mmHg 92%
    05:00 +9°C° 0 mm 1 m/s 768 mmHg 91%
    06:00 +9°C° 0 mm 1 m/s 768 mmHg 91%
    07:00 +9°C° 0 mm 1 m/s 769 mmHg 91%
    08:00 +11°C° 0 mm 1 m/s 769 mmHg 82%
    09:00 +11°C° 0 mm 0 m/s 769 mmHg 74%
    10:00 +13°C° 0 mm 0 m/s 769 mmHg 65%
    11:00 +15°C° 0 mm 1 m/s 769 mmHg 63%
    12:00 +15°C° 0 mm 1 m/s 769 mmHg 61%
    13:00 +16°C° 0 mm 1 m/s 769 mmHg 59%
    14:00 +16°C° 0 mm 2 m/s 769 mmHg 62%
    15:00 +15°C° 0 mm 2 m/s 768 mmHg 65%
    16:00 +14°C° 0 mm 3 m/s 768 mmHg 68%
    17:00 +13°C° 0 mm 3 m/s 769 mmHg 75%
    18:00 +12°C° 0 mm 3 m/s 769 mmHg 83%
    19:00 +11°C° 0 mm 4 m/s 769 mmHg 90%
    20:00 +11°C° 0 mm 4 m/s 769 mmHg 90%
    21:00 +10°C° 0 mm 3 m/s 769 mmHg 90%
    22:00 +10°C° 0 mm 3 m/s 769 mmHg 90%
    23:00 +10°C° 0 mm 3 m/s 769 mmHg 89%

    21 Février, Jeudi

    Heure Température Précipitation Vent Pression Humidité
    00:00 +10°C° 0 mm 3 m/s 769 mmHg 87%
    01:00 +9°C° 0 mm 3 m/s 769 mmHg 85%
    02:00 +9°C° 0 mm 3 m/s 769 mmHg 84%
    03:00 +8°C° 0 mm 4 m/s 769 mmHg 83%
    04:00 +8°C° 0 mm 4 m/s 769 mmHg 82%
    05:00 +7°C° 0 mm 4 m/s 769 mmHg 80%
    06:00 +7°C° 0 mm 4 m/s 769 mmHg 78%
    07:00 +7°C° 0 mm 5 m/s 769 mmHg 76%
    08:00 +10°C° 0 mm 4 m/s 770 mmHg 68%
    09:00 +12°C° 0 mm 4 m/s 770 mmHg 59%
    10:00 +14°C° 0 mm 4 m/s 770 mmHg 51%
    11:00 +14°C° 0 mm 5 m/s 769 mmHg 50%
    12:00 +15°C° 0 mm 5 m/s 769 mmHg 50%
    13:00 +16°C° 0 mm 5 m/s 769 mmHg 50%
    14:00 +15°C° 0 mm 6 m/s 768 mmHg 57%
    15:00 +15°C° 0 mm 6 m/s 768 mmHg 65%
    16:00 +14°C° 0 mm 6 m/s 768 mmHg 73%
    17:00 +13°C° 0 mm 6 m/s 768 mmHg 80%
    18:00 +11°C° 0 mm 6 m/s 768 mmHg 88%
    19:00 +10°C° 0 mm 5 m/s 769 mmHg 95%
    20:00 +9°C° 0 mm 5 m/s 769 mmHg 94%
    21:00 +9°C° 0 mm 5 m/s 769 mmHg 93%
    22:00 +9°C° 0 mm 5 m/s 769 mmHg 92%
    23:00 +10°C° 0 mm 4 m/s 769 mmHg 91%
    Voir plus